Flag for Sweden Weather past 2 weeks in Kiruna, Sweden

Now
50 °F

Overcast.


Feels Like: 47 °F
Forecast: 46 / 55 °F
Wind: 8 mph from North

Location: Kiruna Airport

Current Time: Aug 2, 2015 at 8:32:59 PM

Latest Report: Aug 2, 2015 at 7:50 PM


Visibility: N/A

Pressure: 29.83 "Hg (27.97 "Hg at 532m altitude)

Humidity: 94%

Dew point: 48 °F

Location of KirunaLocation

Historic Weather in Kiruna — Graph

°F

Kiruna temperature yesterday

Maximum temperature yesterday: 57 °F (at 12:20 PM)
Minimum temperature yesterday: 48 °F (at 10:20 PM)
Average temperature yesterday: 52 °F

Past Weeks' High & Low Weather Summary

 TemperatureHumidityPressure
High66 °F (Jul 28, 6:20 PM)100% (Jul 19, 7:20 AM)29.92 "Hg (Jul 19, 7:20 AM)
Low41 °F (Jul 26, 1:50 AM)42% (Jul 18, 7:20 PM)29.36 "Hg (Jul 30, 7:50 AM)
Average53 °F85%29.64 "Hg
* Reported Jul 18 7:20 PM — Aug 2 7:20 PM, Kiruna, Weather by CustomWeather, © 2015

Note: Actual official high and low records may vary slightly from our data, if they occured in-between our weather recording intervals... More about our weather records

Advertising

Kiruna weather history for previous 24 hours

 ConditionsComfort  
Time TempWeatherWind HumidityBarometerVisibility
7:20 PM
Sun, Aug 2
50 °FOvercast.8 mph94%29.83 "HgN/A
6:50 PM50 °FDrizzle. Partly sunny.8 mph94%29.83 "HgN/A
6:20 PM50 °FBroken clouds.8 mph94%29.83 "HgN/A
5:50 PM50 °FMore clouds than sun.9 mph94%29.83 "HgN/A
5:20 PM50 °FDrizzle. Broken clouds.8 mph94%29.83 "HgN/A
4:50 PM50 °FPartly sunny.7 mph94%29.83 "HgN/A
4:20 PM52 °FScattered clouds.7 mph94%29.83 "HgN/A
3:50 PM52 °FDrizzle. Broken clouds.9 mph88%29.83 "HgN/A
3:20 PM50 °FLight rain. Partly sunny.6 mph94%29.83 "HgN/A
2:50 PM50 °FLight rain. Partly sunny.7 mph94%29.83 "HgN/A
2:20 PM50 °FLight rain. Overcast.6 mph94%29.83 "HgN/A
1:50 PM50 °FLight rain. Mostly cloudy.7 mph94%29.83 "HgN/A
1:20 PM50 °FLight rain. Partly sunny.6 mph94%29.83 "HgN/A
12:50 PM50 °FLight rain. Broken clouds.6 mph94%29.83 "HgN/A
12:20 PM50 °FLight rain. Partly sunny.8 mph94%29.83 "HgN/A
11:50 AM50 °FDrizzle. Partly sunny.7 mph94%29.83 "HgN/A
11:20 AM50 °FDrizzle. Partly sunny.6 mph94%29.83 "HgN/A
10:50 AM50 °FLight rain. Overcast.7 mph94%29.83 "HgN/A
10:20 AM50 °FLight rain. Overcast.7 mph88%29.80 "HgN/A
9:50 AM50 °FDrizzle. Overcast.7 mph88%29.80 "HgN/A
9:20 AM50 °FDrizzle. Overcast.8 mph88%29.80 "HgN/A
8:50 AM48 °FLight rain. Overcast.6 mph94%29.80 "HgN/A
8:20 AM48 °FDrizzle. Overcast.7 mph94%29.80 "HgN/A
7:50 AM48 °FDrizzle. Overcast.6 mph94%29.80 "HgN/A
7:20 AM48 °FDrizzle. Overcast.3 mph100%29.80 "HgN/A
6:50 AM48 °FOvercast.3 mph94%29.80 "HgN/A
6:20 AM48 °FLight rain. Overcast.5 mph94%29.80 "HgN/A
5:50 AM48 °FDrizzle. Overcast.6 mph94%29.80 "HgN/A
5:20 AM48 °FLight rain. Overcast.3 mph94%29.80 "HgN/A
4:50 AM48 °FDrizzle. Overcast.5 mph94%29.83 "HgN/A
4:20 AM48 °FDrizzle. Overcast.3 mph94%29.80 "HgN/A
3:50 AM48 °FLight rain. Overcast.5 mph94%29.80 "HgN/A
3:20 AM48 °FLight rain. Overcast.6 mph94%29.80 "HgN/A
2:50 AM48 °FDrizzle. Overcast.7 mph94%29.80 "HgN/A
2:20 AM48 °FDrizzle. Overcast.7 mph94%29.80 "HgN/A
1:50 AM48 °FLight rain. Overcast.6 mph94%29.80 "HgN/A
1:20 AM48 °FDrizzle. Overcast.6 mph94%29.80 "HgN/A
12:50 AM48 °FDrizzle. Overcast.5 mph94%29.83 "HgN/A
11:20 PM
Sat, Aug 1
48 °FDrizzle. Partly sunny.6 mph94%29.83 "HgN/A
10:50 PM48 °FDrizzle. Overcast.7 mph94%29.83 "HgN/A
10:20 PM48 °FDrizzle. Overcast.3 mph100%29.83 "HgN/A
9:50 PM50 °FLight rain. Overcast.7 mph94%29.80 "HgN/A
9:20 PM50 °FDrizzle. Overcast.6 mph94%29.80 "HgN/A
8:50 PM50 °FLight rain. Overcast.7 mph94%29.80 "HgN/A
8:20 PM50 °FLight rain. Overcast.8 mph94%29.80 "HgN/A
Weather by CustomWeather, © 2015

See weather overviewHow to use our weather pages